When you browse on this site, cookies collect data to enhance your experience and personalize the content and advertising you see.
Visit our Privacy Policy to learn more. By continuing to use the site, you agree to this use of cookies and data.
  • In Austria
  • List of Countries
  • For 7 days
  • Water Temperature
  • Weather Map
  • News
  • Weather Widgets
  • user-avatar
    Login

    Hourly Weather Anif

    Today, 4 June, Thursday

    Time Temperature Precipitation Wind Pressure Humidity
    00:00 +12°C° 0.1 mm 1 mps 683 mmHg 86%
    01:00 +10°C° 0 mm 2 mps 682 mmHg 87%
    02:00 +10°C° 0.1 mm 2 mps 682 mmHg 87%
    03:00 +10°C° 0.1 mm 2 mps 681 mmHg 87%
    04:00 +9°C° 0.1 mm 2 mps 681 mmHg 87%
    05:00 +12°C° 0 mm 1 mps 681 mmHg 84%
    06:00 +13°C° 0 mm 1 mps 681 mmHg 81%
    07:00 +15°C° 0 mm 1 mps 681 mmHg 78%
    08:00 +18°C° 0 mm 1 mps 681 mmHg 71%
    09:00 +19°C° 0 mm 1 mps 681 mmHg 63%
    10:00 +21°C° 0 mm 1 mps 681 mmHg 55%
    11:00 +21°C° 0.1 mm 1 mps 681 mmHg 59%
    12:00 +21°C° 0.1 mm 1 mps 681 mmHg 62%
    13:00 +20°C° 0.1 mm 2 mps 680 mmHg 66%
    14:00 +19°C° 1 mm 2 mps 680 mmHg 72%
    15:00 +18°C° 1 mm 2 mps 680 mmHg 79%
    16:00 +17°C° 1 mm 2 mps 679 mmHg 85%
    17:00 +16°C° 0.8 mm 2 mps 679 mmHg 89%
    18:00 +15°C° 0.8 mm 2 mps 679 mmHg 92%
    19:00 +13°C° 0.8 mm 1 mps 678 mmHg 95%
    20:00 +13°C° 0.4 mm 1 mps 678 mmHg 96%
    21:00 +12°C° 0.4 mm 1 mps 678 mmHg 97%
    22:00 +11°C° 0.4 mm 1 mps 679 mmHg 97%
    23:00 +11°C° 1.3 mm 1 mps 678 mmHg 98%

    Tomorrow, 5 June, Friday

    Time Temperature Precipitation Wind Pressure Humidity
    00:00 +10°C° 1.3 mm 2 mps 678 mmHg 98%
    01:00 +10°C° 1.3 mm 2 mps 678 mmHg 98%
    02:00 +9°C° 2.3 mm 2 mps 678 mmHg 97%
    03:00 +9°C° 2.3 mm 2 mps 678 mmHg 97%
    04:00 +9°C° 2.3 mm 2 mps 678 mmHg 96%
    05:00 +9°C° 0.4 mm 2 mps 679 mmHg 95%
    06:00 +10°C° 0.4 mm 2 mps 679 mmHg 93%
    07:00 +11°C° 0.4 mm 1 mps 679 mmHg 92%
    08:00 +10°C° 0.4 mm 2 mps 680 mmHg 93%
    09:00 +10°C° 0.4 mm 2 mps 680 mmHg 94%
    10:00 +10°C° 0.4 mm 2 mps 680 mmHg 95%
    11:00 +12°C° 0.2 mm 1 mps 681 mmHg 87%
    12:00 +14°C° 0.2 mm 1 mps 681 mmHg 80%
    13:00 +15°C° 0.2 mm 1 mps 681 mmHg 73%
    14:00 +15°C° 0.1 mm 1 mps 681 mmHg 72%
    15:00 +15°C° 0.1 mm 1 mps 681 mmHg 71%
    16:00 +15°C° 0.1 mm 1 mps 682 mmHg 70%
    17:00 +15°C° 0.2 mm 1 mps 682 mmHg 76%
    18:00 +14°C° 0.2 mm 1 mps 682 mmHg 81%
    19:00 +12°C° 0.2 mm 0 mps 682 mmHg 86%
    20:00 +13°C° 0 mm 1 mps 682 mmHg 85%
    21:00 +12°C° 0 mm 1 mps 683 mmHg 85%
    22:00 +12°C° 0 mm 1 mps 683 mmHg 84%
    23:00 +11°C° 0 mm 1 mps 683 mmHg 86%

    Day after tomorrow, 6 June, Saturday

    Time Temperature Precipitation Wind Pressure Humidity
    00:00 +10°C° 0 mm 1 mps 684 mmHg 87%
    01:00 +10°C° 0 mm 1 mps 684 mmHg 88%
    02:00 +10°C° 0 mm 1 mps 684 mmHg 88%
    03:00 +9°C° 0 mm 1 mps 684 mmHg 89%
    04:00 +9°C° 0 mm 1 mps 684 mmHg 90%
    05:00 +11°C° 0 mm 1 mps 684 mmHg 86%
    06:00 +12°C° 0 mm 1 mps 685 mmHg 82%
    07:00 +13°C° 0 mm 1 mps 685 mmHg 78%
    08:00 +16°C° 0 mm 1 mps 686 mmHg 71%
    09:00 +19°C° 0 mm 1 mps 686 mmHg 63%
    10:00 +21°C° 0 mm 1 mps 687 mmHg 55%
    11:00 +19°C° 0.3 mm 2 mps 686 mmHg 60%
    12:00 +19°C° 0.3 mm 2 mps 686 mmHg 65%
    13:00 +19°C° 0.3 mm 2 mps 685 mmHg 70%
    14:00 +18°C° 0.9 mm 2 mps 685 mmHg 75%
    15:00 +18°C° 0.9 mm 2 mps 685 mmHg 81%
    16:00 +17°C° 0.9 mm 2 mps 685 mmHg 86%
    17:00 +16°C° 0.9 mm 2 mps 685 mmHg 90%
    18:00 +15°C° 0.9 mm 2 mps 685 mmHg 93%
    19:00 +13°C° 0.9 mm 2 mps 685 mmHg 97%
    20:00 +13°C° 1.7 mm 1 mps 685 mmHg 98%
    21:00 +12°C° 1.7 mm 1 mps 686 mmHg 98%
    22:00 +12°C° 1.7 mm 1 mps 686 mmHg 99%
    23:00 +12°C° 1.2 mm 1 mps 686 mmHg 98%

    7 June, Sunday

    Time Temperature Precipitation Wind Pressure Humidity
    00:00 +12°C° 1.2 mm 1 mps 686 mmHg 98%
    01:00 +12°C° 1.2 mm 1 mps 686 mmHg 97%
    02:00 +11°C° 0.3 mm 1 mps 686 mmHg 97%
    03:00 +11°C° 0.3 mm 1 mps 686 mmHg 97%
    04:00 +10°C° 0.3 mm 0 mps 686 mmHg 97%
    05:00 +11°C° 1 mm 1 mps 686 mmHg 97%
    06:00 +11°C° 1 mm 1 mps 686 mmHg 98%
    07:00 +11°C° 1 mm 1 mps 687 mmHg 99%
    08:00 +11°C° 1.2 mm 1 mps 687 mmHg 98%
    09:00 +11°C° 1.2 mm 1 mps 687 mmHg 98%
    10:00 +11°C° 1.2 mm 1 mps 688 mmHg 98%
    11:00 +11°C° 0.8 mm 1 mps 688 mmHg 98%
    12:00 +11°C° 0.8 mm 1 mps 688 mmHg 98%
    13:00 +11°C° 0.8 mm 1 mps 688 mmHg 98%
    14:00 +11°C° 0.5 mm 1 mps 688 mmHg 97%
    15:00 +11°C° 0.5 mm 1 mps 688 mmHg 97%
    16:00 +11°C° 0.5 mm 1 mps 688 mmHg 97%
    17:00 +11°C° 0.4 mm 1 mps 687 mmHg 97%
    18:00 +11°C° 0.4 mm 1 mps 687 mmHg 97%
    19:00 +9°C° 0.4 mm 0 mps 687 mmHg 98%
    20:00 +9°C° 0.5 mm 0 mps 687 mmHg 98%
    21:00 +9°C° 0.5 mm 0 mps 687 mmHg 98%
    22:00 +9°C° 0.5 mm 0 mps 687 mmHg 98%
    23:00 +9°C° 0.1 mm 0 mps 687 mmHg 98%

    8 June, Monday

    Time Temperature Precipitation Wind Pressure Humidity
    00:00 +9°C° 0.1 mm 0 mps 687 mmHg 98%
    01:00 +8°C° 0.1 mm 0 mps 686 mmHg 99%
    02:00 +8°C° 0.1 mm 0 mps 686 mmHg 99%
    03:00 +8°C° 0.1 mm 0 mps 686 mmHg 99%
    04:00 +8°C° 0.1 mm 0 mps 686 mmHg 99%
    05:00 +9°C° 0.2 mm 1 mps 686 mmHg 99%
    06:00 +10°C° 0.2 mm 1 mps 686 mmHg 99%
    07:00 +10°C° 0.2 mm 1 mps 686 mmHg 99%
    08:00 +10°C° 0.5 mm 1 mps 686 mmHg 99%
    09:00 +10°C° 0.5 mm 1 mps 686 mmHg 98%
    10:00 +10°C° 0.5 mm 1 mps 687 mmHg 98%
    11:00 +10°C° 0.3 mm 1 mps 687 mmHg 98%
    12:00 +10°C° 0.3 mm 1 mps 687 mmHg 98%
    13:00 +11°C° 0.3 mm 1 mps 687 mmHg 97%
    14:00 +11°C° 0.4 mm 1 mps 687 mmHg 97%
    15:00 +11°C° 0.4 mm 1 mps 687 mmHg 97%
    16:00 +11°C° 0.4 mm 1 mps 687 mmHg 96%
    17:00 +11°C° 0.1 mm 1 mps 687 mmHg 96%
    18:00 +11°C° 0.1 mm 1 mps 687 mmHg 96%
    19:00 +10°C° 0.1 mm 0 mps 687 mmHg 96%
    20:00 +10°C° 0 mm 0 mps 688 mmHg 96%
    21:00 +9°C° 0 mm 0 mps 688 mmHg 96%
    22:00 +8°C° 0 mm 0 mps 688 mmHg 96%
    23:00 +8°C° 0 mm 0 mps 688 mmHg 96%

    9 June, Tuesday

    Time Temperature Precipitation Wind Pressure Humidity
    00:00 +8°C° 0 mm 0 mps 688 mmHg 96%
    01:00 +7°C° 0 mm 0 mps 688 mmHg 96%
    02:00 +7°C° 0 mm 0 mps 688 mmHg 96%
    03:00 +8°C° 0 mm 0 mps 688 mmHg 96%
    04:00 +8°C° 0 mm 0 mps 689 mmHg 96%
    05:00 +8°C° 0 mm 0 mps 689 mmHg 95%
    06:00 +9°C° 0 mm 0 mps 689 mmHg 94%
    07:00 +10°C° 0 mm 0 mps 690 mmHg 92%
    08:00 +12°C° 0 mm 0 mps 690 mmHg 84%
    09:00 +15°C° 0 mm 1 mps 690 mmHg 75%
    10:00 +16°C° 0 mm 1 mps 691 mmHg 67%
    11:00 +18°C° 0.1 mm 1 mps 691 mmHg 65%
    12:00 +18°C° 0.1 mm 1 mps 691 mmHg 63%
    13:00 +19°C° 0.1 mm 1 mps 691 mmHg 61%
    14:00 +19°C° 0.1 mm 1 mps 691 mmHg 61%
    15:00 +19°C° 0.1 mm 1 mps 690 mmHg 62%
    16:00 +20°C° 0.1 mm 1 mps 690 mmHg 62%
    17:00 +19°C° 0.1 mm 1 mps 690 mmHg 69%
    18:00 +16°C° 0.1 mm 1 mps 690 mmHg 76%
    19:00 +15°C° 0.1 mm 1 mps 690 mmHg 83%
    20:00 +14°C° 0.1 mm 1 mps 690 mmHg 86%
    21:00 +12°C° 0.1 mm 0 mps 691 mmHg 89%
    22:00 +11°C° 0.1 mm 0 mps 691 mmHg 92%
    23:00 +11°C° 0.1 mm 0 mps 691 mmHg 93%
    Show more